When you browse on this site, cookies collect data to enhance your experience and personalize the content and advertising you see.
Visit our Privacy Policy to learn more. By continuing to use the site, you agree to this use of cookies and data.
  • In Romania
  • List of Countries
  • For 7 days
  • Water Temperature
  • Satellite Maps
  • Weather Map
  • Weather Widgets
  • user-avatar
    Login

    Hourly Weather Novonikolskoe

    Today, 24 March, Sunday

    Time Temperature Precipitation Wind Pressure Humidity
    00:00 0°C° 0.2 mm 3 mps 743 mmHg 85%
    01:00 -1°C° 0.2 mm 4 mps 742 mmHg 84%
    02:00 0°C° 0 mm 3 mps 741 mmHg 85%
    03:00 0°C° 0.7 mm 3 mps 741 mmHg 86%
    04:00 -1°C° 0.7 mm 4 mps 740 mmHg 87%
    05:00 -1°C° 0.7 mm 4 mps 739 mmHg 87%
    06:00 0°C° 0 mm 4 mps 739 mmHg 88%
    07:00 0°C° 0 mm 4 mps 739 mmHg 88%
    08:00 +1°C° 0 mm 4 mps 738 mmHg 88%
    09:00 +1°C° 0 mm 4 mps 738 mmHg 86%
    10:00 +1°C° 0 mm 4 mps 738 mmHg 83%
    11:00 +3°C° 0 mm 4 mps 738 mmHg 80%
    12:00 +2°C° 0.2 mm 5 mps 738 mmHg 74%
    13:00 +3°C° 0.2 mm 5 mps 738 mmHg 67%
    14:00 +4°C° 0.2 mm 6 mps 738 mmHg 60%
    15:00 +3°C° 0.1 mm 5 mps 738 mmHg 62%
    16:00 +3°C° 0.1 mm 4 mps 738 mmHg 65%
    17:00 +3°C° 0.1 mm 3 mps 738 mmHg 67%
    18:00 +2°C° 0 mm 3 mps 738 mmHg 71%
    19:00 +1°C° 0 mm 3 mps 738 mmHg 75%
    20:00 +1°C° 0 mm 2 mps 738 mmHg 78%
    21:00 -1°C° 0 mm 2 mps 739 mmHg 79%
    22:00 -2°C° 0 mm 2 mps 739 mmHg 80%
    23:00 -2°C° 0 mm 2 mps 739 mmHg 81%

    Tomorrow, 25 March, Monday

    Time Temperature Precipitation Wind Pressure Humidity
    00:00 -3°C° 0 mm 2 mps 739 mmHg 82%
    01:00 -3°C° 0 mm 2 mps 739 mmHg 84%
    02:00 -3°C° 0 mm 2 mps 739 mmHg 85%
    03:00 -3°C° 0 mm 2 mps 738 mmHg 86%
    04:00 -4°C° 0 mm 2 mps 738 mmHg 87%
    05:00 -4°C° 0 mm 2 mps 738 mmHg 87%
    06:00 -3°C° 0 mm 2 mps 738 mmHg 82%
    07:00 -2°C° 0 mm 2 mps 738 mmHg 78%
    08:00 -1°C° 0 mm 3 mps 738 mmHg 73%
    09:00 +1°C° 0 mm 3 mps 738 mmHg 66%
    10:00 +3°C° 0 mm 4 mps 737 mmHg 59%
    11:00 +4°C° 0 mm 4 mps 737 mmHg 52%
    12:00 +5°C° 0 mm 4 mps 737 mmHg 51%
    13:00 +5°C° 0 mm 4 mps 736 mmHg 49%
    14:00 +6°C° 0 mm 4 mps 736 mmHg 48%
    15:00 +5°C° 0 mm 3 mps 736 mmHg 54%
    16:00 +4°C° 0 mm 3 mps 736 mmHg 60%
    17:00 +4°C° 0 mm 2 mps 736 mmHg 66%
    18:00 +3°C° 0 mm 2 mps 736 mmHg 71%
    19:00 +1°C° 0 mm 2 mps 736 mmHg 76%
    20:00 -1°C° 0 mm 2 mps 736 mmHg 81%
    21:00 -1°C° 0 mm 2 mps 735 mmHg 81%
    22:00 -1°C° 0 mm 2 mps 735 mmHg 82%
    23:00 -1°C° 0 mm 2 mps 735 mmHg 83%

    Day after tomorrow, 26 March, Tuesday

    Time Temperature Precipitation Wind Pressure Humidity
    00:00 -1°C° 0 mm 2 mps 735 mmHg 83%
    01:00 -1°C° 0 mm 2 mps 734 mmHg 84%
    02:00 -1°C° 0 mm 2 mps 734 mmHg 84%
    03:00 -2°C° 0 mm 2 mps 734 mmHg 86%
    04:00 -2°C° 0 mm 2 mps 734 mmHg 88%
    05:00 -2°C° 0 mm 2 mps 733 mmHg 90%
    06:00 -1°C° 0.3 mm 2 mps 733 mmHg 90%
    07:00 -1°C° 0.3 mm 3 mps 733 mmHg 89%
    08:00 0°C° 0.3 mm 3 mps 733 mmHg 88%
    09:00 0°C° 0.3 mm 3 mps 733 mmHg 83%
    10:00 -1°C° 0.3 mm 4 mps 733 mmHg 78%
    11:00 0°C° 0.3 mm 4 mps 733 mmHg 72%
    12:00 0°C° 0.1 mm 4 mps 733 mmHg 68%
    13:00 0°C° 0.1 mm 4 mps 733 mmHg 63%
    14:00 0°C° 0.1 mm 4 mps 733 mmHg 59%
    15:00 0°C° 0.1 mm 3 mps 734 mmHg 60%
    16:00 0°C° 0.1 mm 3 mps 734 mmHg 61%
    17:00 +1°C° 0.1 mm 2 mps 734 mmHg 63%
    18:00 -1°C° 0 mm 2 mps 734 mmHg 68%
    19:00 -3°C° 0 mm 2 mps 735 mmHg 73%
    20:00 -2°C° 0 mm 1 mps 735 mmHg 78%
    21:00 -2°C° 0 mm 1 mps 735 mmHg 80%
    22:00 -2°C° 0 mm 1 mps 736 mmHg 81%
    23:00 -3°C° 0 mm 1 mps 736 mmHg 82%

    27 March, Wednesday

    Time Temperature Precipitation Wind Pressure Humidity
    00:00 -5°C° 0 mm 2 mps 736 mmHg 82%
    01:00 -5°C° 0 mm 2 mps 737 mmHg 83%
    02:00 -5°C° 0 mm 2 mps 737 mmHg 83%
    03:00 -5°C° 0 mm 2 mps 737 mmHg 84%
    04:00 -6°C° 0 mm 3 mps 738 mmHg 84%
    05:00 -6°C° 0 mm 3 mps 738 mmHg 84%
    06:00 -5°C° 0.1 mm 4 mps 739 mmHg 81%
    07:00 -4°C° 0.1 mm 4 mps 739 mmHg 77%
    08:00 -4°C° 0.1 mm 5 mps 740 mmHg 74%
    09:00 -4°C° 0.1 mm 5 mps 740 mmHg 70%
    10:00 -2°C° 0.1 mm 5 mps 740 mmHg 67%
    11:00 -2°C° 0.1 mm 5 mps 741 mmHg 63%
    12:00 -1°C° 0.1 mm 5 mps 741 mmHg 62%
    13:00 -2°C° 0.1 mm 6 mps 742 mmHg 60%
    14:00 -2°C° 0.1 mm 6 mps 742 mmHg 59%
    15:00 -2°C° 0 mm 6 mps 743 mmHg 61%
    16:00 -2°C° 0 mm 5 mps 744 mmHg 63%
    17:00 -2°C° 0 mm 5 mps 744 mmHg 66%
    18:00 -2°C° 0 mm 5 mps 745 mmHg 69%
    19:00 -3°C° 0 mm 4 mps 746 mmHg 72%
    20:00 -3°C° 0 mm 4 mps 746 mmHg 76%
    21:00 -4°C° 0 mm 3 mps 747 mmHg 79%
    22:00 -4°C° 0 mm 3 mps 747 mmHg 82%
    23:00 -5°C° 0 mm 3 mps 748 mmHg 85%

    28 March, Thursday

    Time Temperature Precipitation Wind Pressure Humidity
    00:00 -5°C° 0 mm 3 mps 748 mmHg 86%
    01:00 -6°C° 0 mm 3 mps 749 mmHg 87%
    02:00 -6°C° 0 mm 3 mps 749 mmHg 88%
    03:00 -6°C° 0 mm 3 mps 750 mmHg 87%
    04:00 -6°C° 0 mm 3 mps 750 mmHg 87%
    05:00 -7°C° 0 mm 3 mps 750 mmHg 86%
    06:00 -5°C° 0 mm 2 mps 751 mmHg 80%
    07:00 -4°C° 0 mm 2 mps 751 mmHg 73%
    08:00 -4°C° 0 mm 2 mps 752 mmHg 66%
    09:00 -2°C° 0 mm 2 mps 752 mmHg 58%
    10:00 -1°C° 0 mm 2 mps 752 mmHg 49%
    11:00 +2°C° 0 mm 2 mps 752 mmHg 40%
    12:00 +1°C° 0 mm 3 mps 752 mmHg 39%
    13:00 +2°C° 0 mm 3 mps 752 mmHg 38%
    14:00 +3°C° 0 mm 3 mps 751 mmHg 37%
    15:00 +2°C° 0 mm 3 mps 751 mmHg 43%
    16:00 +2°C° 0 mm 3 mps 751 mmHg 49%
    17:00 +2°C° 0 mm 2 mps 750 mmHg 55%
    18:00 +2°C° 0 mm 2 mps 750 mmHg 59%
    19:00 0°C° 0 mm 3 mps 750 mmHg 64%
    20:00 0°C° 0 mm 3 mps 750 mmHg 68%
    21:00 0°C° 0 mm 3 mps 749 mmHg 70%
    22:00 -1°C° 0 mm 3 mps 749 mmHg 71%
    23:00 -2°C° 0 mm 4 mps 748 mmHg 73%

    29 March, Friday

    Time Temperature Precipitation Wind Pressure Humidity
    00:00 -2°C° 0 mm 4 mps 748 mmHg 77%
    01:00 -1°C° 0 mm 4 mps 747 mmHg 80%
    02:00 -1°C° 0 mm 5 mps 747 mmHg 83%
    03:00 -1°C° 0 mm 5 mps 746 mmHg 85%
    04:00 -1°C° 0 mm 5 mps 746 mmHg 87%
    05:00 0°C° 0 mm 5 mps 746 mmHg 88%
    06:00 0°C° 0.1 mm 5 mps 746 mmHg 86%
    07:00 0°C° 0.1 mm 5 mps 746 mmHg 83%
    08:00 0°C° 0.1 mm 5 mps 746 mmHg 81%
    09:00 +1°C° 0 mm 5 mps 746 mmHg 73%
    10:00 +2°C° 0 mm 5 mps 747 mmHg 65%
    11:00 +3°C° 0 mm 5 mps 747 mmHg 57%
    12:00 +5°C° 0 mm 4 mps 747 mmHg 54%
    13:00 +5°C° 0 mm 4 mps 747 mmHg 52%
    14:00 +6°C° 0 mm 4 mps 747 mmHg 50%
    15:00 +5°C° 0 mm 3 mps 746 mmHg 56%
    16:00 +5°C° 0 mm 2 mps 746 mmHg 61%
    17:00 +5°C° 0 mm 2 mps 746 mmHg 67%
    18:00 +4°C° 0 mm 2 mps 746 mmHg 73%
    19:00 +2°C° 0 mm 2 mps 745 mmHg 80%
    20:00 +1°C° 0 mm 2 mps 745 mmHg 86%
    21:00 +1°C° 0 mm 2 mps 745 mmHg 88%
    22:00 +1°C° 0 mm 2 mps 745 mmHg 90%
    23:00 +1°C° 0 mm 2 mps 744 mmHg 91%
    Show more